星链-11367 (STARLINK-11367)

导读

STARLINK-11367是美国太空探索技术公司SpaceX星链计划中的卫星,于2024年11月25日发射入轨。星链计划旨在构建全球卫星互联网星座,为全球提供高速低延迟互联网服务,该卫星的成功入轨进一步扩充了星链星座规模,推进了全球组网进程。

Basic Information
目录编号:
62097
目录名称:
STARLINK-11367
国际标识:
2024-220K
轨道中心:
EARTH
卫星名称:
星链-11367
卫星全名:
星链-11367 (STARLINK-11367)
卫星状态:
在轨 (已飞行649 天)
发射日期:
2024-11-25 UTC
国别 :
美国 (US)
星等 :
--
Orbit Information
数据来源 国际轨道数据
星历时间: 2026-09-05T02:51:11+0800
17小时前
查看轨道信息
半长轴: 6733.931km
偏心率: 0.0002359
轨道倾角: 43.000°
近地点辐角 289.335°
升交点赤经 43.243°
平近点角 70.726°
近地点: 354.205km
远地点: 357.383km
周期: 91.656分钟
每日圈数: 15.710856
Detailed Information
固有亮度:
5
最大亮度:
2.5
卫星平台:
Starlink V1.0
覆盖范围:
全球
运营商:
太空探索技术公司
运营商所在国:
美国
制造商(研发单位):
太空探索技术公司
制造商所在国:
美国
使用方式:
暂无
Satellite Introduction
Starlink 计划是 SpaceX 推出的全球卫星互联网项目,通过发射低轨道卫星,为全球尤其是偏远地区提供高速、低延迟的互联网服务。自 2019 年起,Starlink 已部署数千颗卫星,旨在缩小全球数字鸿沟,推动互联网普及。该项目还为军事、航空等行业提供通信支持,带来广泛经济效益。
2D Orbit Map
3D Orbit Map
Orbit Altitude Analysis Chart
Orbit Inclination Analysis Chart
Orbit Comprehensive Analysis Chart
View Comprehensive Chart
Conjunction Data List
Event ID Objects TCA Miss Dist (km) Collision Risk Probability Collision Risk Index (CRI) Action
CDM_260907-180206-209706-412521
2026-09-07T
18:02:27+0000
1.219 km
极远距离
7.204888E-6 低风险 0.52